Flag for Bermuda Weather past 2 weeks in Hamilton, Bermuda

Now
81 °F

Passing clouds.


Feels Like: 87 °F
Forecast: 79 / 84 °F
Wind: 24 mph from South

Location: Bermuda

Current Time: Sep 22, 2014 at 12:15:09 AM

Latest Report: Sep 21, 2014 at 11:55 PM


Visibility: N/A

Pressure: 30.09 "Hg

Humidity: 89%

Dew point: 77 °F

Location of HamiltonLocation

Historic Weather in Hamilton — Graph

°F

Hamilton temperature yesterday

Maximum temperature yesterday: 84 °F (at 12:55 PM)
Minimum temperature yesterday: 81 °F (at 12:55 AM)
Average temperature yesterday: 82 °F

Past Weeks' High & Low Weather Summary

 TemperatureHumidityPressure
High86 °F (Sep 9, 1:55 PM)100% (Sep 12, 6:55 AM)30.18 "Hg (Sep 12, 6:55 AM)
Low73 °F (Sep 18, 2:55 PM)62% (Sep 7, 3:55 PM)29.86 "Hg (Sep 17, 2:55 AM)
Average81 °F80%30.06 "Hg
* Reported Sep 6 10:55 PM — Sep 21 10:55 PM, Hamilton, Weather by CustomWeather, © 2014

Note: Actual official high and low records may vary slightly from our data, if they occured in-between our weather recording intervals... More about our weather records

Advertising

Hamilton weather history for previous 24 hours

 ConditionsComfort  
Time TempWeatherWind HumidityBarometerVisibility
10:55 PM
Sep 21
81 °FScattered showers. Partly cloudy.23 mph89%30.12 "HgN/A
9:55 PM81 °FPassing clouds.21 mph89%30.12 "HgN/A
8:55 PM81 °FPartly cloudy.20 mph89%30.12 "HgN/A
7:55 PM81 °FPartly sunny.18 mph89%30.09 "HgN/A
6:55 PM82 °FPartly sunny.17 mph89%30.09 "HgN/A
5:55 PM82 °FBroken clouds.17 mph89%30.09 "HgN/A
4:55 PM82 °FBroken clouds.18 mph84%30.09 "HgN/A
3:55 PM82 °FBroken clouds.18 mph84%30.09 "HgN/A
2:55 PM84 °FPartly sunny.18 mph79%30.12 "HgN/A
1:55 PM84 °FPartly sunny.20 mph79%30.12 "HgN/A
12:55 PM84 °FPartly sunny.20 mph79%30.15 "HgN/A
11:55 AM82 °FPartly sunny.18 mph84%30.15 "HgN/A
10:55 AM82 °FBroken clouds.20 mph84%30.15 "HgN/A
9:55 AM82 °FBroken clouds.17 mph84%30.15 "HgN/A
8:55 AM82 °FBroken clouds.16 mph84%30.15 "HgN/A
7:55 AM81 °FPartly cloudy.17 mph84%30.12 "HgN/A
6:55 AM81 °FPartly cloudy.17 mph84%30.12 "HgN/A
5:55 AM81 °FPartly cloudy.16 mph84%30.12 "HgN/A
4:55 AM81 °FScattered showers. Passing clouds.15 mph84%30.12 "HgN/A
3:55 AM81 °FPassing clouds.15 mph84%30.12 "HgN/A
2:55 AM81 °FPartly cloudy.13 mph84%30.15 "HgN/A
1:55 AM81 °FMostly cloudy.14 mph84%30.15 "HgN/A
12:55 AM81 °FMostly cloudy.13 mph84%30.15 "HgN/A
Weather by CustomWeather, © 2014

See weather overviewHow to use our weather pages